FW8054 Weather Reports


time (UTC)temp
C
wind
direction
speed
KPH
gust
KPH
rain 1hr
cm
rain 24hr
cm
rain mn
cm
humidity
%
barometer
mb
20260507161542 26 0 0.0 8.0 0.00 0.00 0.00 24 1013.2
20260507161020 26 0 1.6 6.4 0.00 0.00 0.00 24 1013.2
20260507160520 25 20 3.2 6.4 0.00 0.00 0.00 24 1013.3
20260507160101 25 0 1.6 6.4 0.00 0.00 0.00 24 1013.3
20260507155519 25 76 1.6 6.4 0.00 0.00 0.00 25 1013.3
20260507155023 25 70 1.6 4.8 0.00 0.00 0.00 25 1013.3
20260507154539 25 0 0.0 4.8 0.00 0.00 0.00 25 1013.4
20260507154022 25 0 0.0 4.8 0.00 0.00 0.00 25 1013.4
20260507153523 25 0 1.6 6.4 0.00 0.00 0.00 25 1013.5
20260507153035 25 92 0.0 6.4 0.00 0.00 0.00 26 1013.5
20260507152523 25 103 1.6 9.7 0.00 0.00 0.00 26 1013.4
20260507152022 25 0 0.0 9.7 0.00 0.00 0.00 26 1013.4
20260507151539 25 146 1.6 6.4 0.00 0.00 0.00 26 1013.4
20260507151020 25 0 0.0 6.4 0.00 0.00 0.00 27 1013.4
20260507150520 25 165 0.0 6.4 0.00 0.00 0.00 27 1013.3
20260507150039 25 182 0.0 1.6 0.00 0.00 0.00 28 1013.3
20260507145520 25 0 0.0 0.0 0.00 0.00 0.00 29 1013.2
20260507145025 24 0 0.0 0.0 0.00 0.00 0.00 29 1013.2
20260507144538 23 0 0.0 0.0 0.00 0.00 0.00 30 1013.3
20260507144020 23 0 0.0 0.0 0.00 0.00 0.00 30 1013.3
20260507143519 22 0 0.0 0.0 0.00 0.00 0.00 31 1013.3
20260507143038 23 0 0.0 0.0 0.00 0.00 0.00 32 1013.3
20260507142519 22 0 0.0 0.0 0.00 0.00 0.00 33 1013.3
20260507142021 22 0 0.0 1.6 0.00 0.00 0.00 33 1013.3
20260507141537 21 0 0.0 1.6 0.00 0.00 0.00 33 1013.3
20260507141019 21 0 0.0 0.0 0.00 0.00 0.00 34 1013.2
20260507140519 22 0 0.0 0.0 0.00 0.00 0.00 34 1013.2
20260507140045 21 0 0.0 0.0 0.00 0.00 0.00 35 1013.2
20260507135520 21 0 0.0 0.0 0.00 0.00 0.00 35 1013.2
20260507135023 20 0 0.0 0.0 0.00 0.00 0.00 35 1013.1
20260507134540 19 0 0.0 0.0 0.00 0.00 0.00 35 1013.0
20260507134021 18 0 0.0 0.0 0.00 0.00 0.00 35 1012.9
20260507133520 18 0 0.0 0.0 0.00 0.00 0.00 35 1012.9
20260507133039 18 0 0.0 0.0 0.00 0.00 0.00 35 1013.0
20260507132523 18 0 0.0 1.6 0.00 0.00 0.00 35 1012.8
20260507132019 17 0 0.0 1.6 0.00 0.00 0.00 35 1012.8
20260507131606 17 0 0.0 1.6 0.00 0.00 0.00 35 1012.8
20260507131020 17 0 0.0 0.0 0.00 0.00 0.00 35 1012.8
20260507130520 17 0 0.0 0.0 0.00 0.00 0.00 34 1012.8
20260507130037 17 0 0.0 0.0 0.00 0.00 0.00 34 1012.8
20260507125519 16 0 0.0 0.0 0.00 0.00 0.00 34 1012.8
20260507125019 16 0 0.0 0.0 0.00 0.00 0.00 34 1012.8
20260507124546 16 0 0.0 0.0 0.00 0.00 0.00 34 1012.8
20260507124019 16 0 0.0 0.0 0.00 0.00 0.00 34 1012.8
20260507123519 16 0 0.0 0.0 0.00 0.00 0.00 34 1012.8
20260507123042 16 0 0.0 0.0 0.00 0.00 0.00 34 1012.8
20260507122520 16 0 0.0 0.0 0.00 0.00 0.00 33 1012.8
20260507122020 16 0 0.0 0.0 0.00 0.00 0.00 33 1012.8
20260507121541 16 0 0.0 0.0 0.00 0.00 0.00 33 1012.8
20260507121020 16 0 0.0 0.0 0.00 0.00 0.00 33 1012.8
20260507120521 16 0 0.0 3.2 0.00 0.00 0.00 32 1012.7
20260507120041 16 0 0.0 4.8 0.00 0.00 0.00 32 1012.8
20260507115520 17 196 1.6 6.4 0.00 0.00 0.00 32 1012.7
20260507115020 17 207 3.2 8.0 0.00 0.00 0.00 32 1012.7
20260507114537 17 146 3.2 8.0 0.00 0.00 0.00 32 1012.7
20260507114020 17 214 4.8 8.0 0.00 0.00 0.00 33 1012.6
20260507113519 18 217 3.2 6.4 0.00 0.00 0.00 32 1012.6
20260507113101 19 0 0.0 0.0 0.00 0.00 0.00 32 1012.5
20260507112523 18 0 0.0 0.0 0.00 0.00 0.00 32 1012.5
20260507112021 18 0 0.0 0.0 0.00 0.00 0.00 32 1012.5
20260507111537 18 0 0.0 0.0 0.00 0.00 0.00 32 1012.5
20260507111019 18 0 0.0 0.0 0.00 0.00 0.00 31 1012.5
20260507110519 18 0 0.0 0.0 0.00 0.00 0.00 31 1012.5
20260507110039 19 0 0.0 1.6 0.00 0.00 0.00 31 1012.5
20260507105520 19 0 0.0 1.6 0.00 0.00 0.00 30 1012.6
20260507105020 20 0 0.0 4.8 0.00 0.00 0.00 31 1012.5
20260507104542 20 0 0.0 4.8 0.00 0.00 0.00 31 1012.5
20260507104019 19 340 1.6 4.8 0.00 0.00 0.00 30 1012.7
20260507103522 19 0 0.0 3.2 0.00 0.00 0.00 30 1012.6
20260507103038 20 47 0.0 4.8 0.00 0.00 0.00 30 1012.7
20260507102523 20 0 0.0 4.8 0.00 0.00 0.00 30 1012.8
20260507102020 20 51 3.2 4.8 0.00 0.00 0.00 30 1012.8
20260507101538 20 49 0.0 4.8 0.00 0.00 0.00 29 1012.9
20260507101019 20 49 3.2 8.0 0.00 0.00 0.00 29 1013.0
20260507100521 20 46 3.2 9.7 0.00 0.00 0.00 29 1013.1
20260507100051 20 32 3.2 9.7 0.00 0.00 0.00 29 1013.1
20260507095522 20 46 4.8 9.7 0.00 0.00 0.00 29 1013.1
20260507095020 20 40 4.8 9.7 0.00 0.00 0.00 28 1013.2
20260507094539 20 35 4.8 9.7 0.00 0.00 0.00 28 1013.2
20260507094019 21 64 4.8 9.7 0.00 0.00 0.00 28 1013.2
20260507093519 21 45 4.8 9.7 0.00 0.00 0.00 27 1013.2
20260507093038 21 344 1.6 8.0 0.00 0.00 0.00 27 1013.2
20260507092522 21 42 4.8 8.0 0.00 0.00 0.00 27 1013.2
20260507092022 21 59 4.8 8.0 0.00 0.00 0.00 27 1013.2
20260507091542 21 0 3.2 11.3 0.00 0.00 0.00 27 1013.2
20260507091023 21 53 3.2 11.3 0.00 0.00 0.00 27 1013.2
20260507090520 21 70 3.2 6.4 0.00 0.00 0.00 27 1013.2
20260507090040 21 49 3.2 6.4 0.00 0.00 0.00 27 1013.1
20260507085522 21 56 3.2 6.4 0.00 0.00 0.00 27 1013.1
20260507085023 21 0 0.0 4.8 0.00 0.00 0.00 27 1013.2
20260507084550 21 71 3.2 4.8 0.00 0.00 0.00 27 1013.1
20260507084022 21 38 1.6 3.2 0.00 0.00 0.00 27 1013.1
20260507083520 21 0 0.0 0.0 0.00 0.00 0.00 27 1013.2
20260507083038 21 0 0.0 3.2 0.00 0.00 0.00 27 1013.2
20260507082519 21 0 0.0 3.2 0.00 0.00 0.00 27 1013.2
20260507082019 21 10 1.6 3.2 0.00 0.00 0.00 27 1013.2
20260507081536 21 0 0.0 0.0 0.00 0.00 0.00 27 1013.3
20260507081019 21 0 0.0 0.0 0.00 0.00 0.00 27 1013.4
20260507080519 20 0 0.0 0.0 0.00 0.00 0.00 27 1013.3
20260507080041 20 0 0.0 0.0 0.00 0.00 0.00 27 1013.4
20260507075523 21 0 0.0 0.0 0.00 0.00 0.00 27 1013.4
20260507075022 21 0 0.0 0.0 0.00 0.00 0.00 26 1013.5
20260507074542 21 0 0.0 0.0 0.00 0.00 0.00 26 1013.5
20260507074022 21 0 0.0 0.0 0.00 0.00 0.00 26 1013.5
20260507073522 21 0 0.0 0.0 0.00 0.00 0.00 25 1013.5
20260507073039 21 0 0.0 3.2 0.00 0.00 0.00 25 1013.5
20260507072523 22 0 1.6 3.2 0.00 0.00 0.00 24 1013.5
20260507072022 22 0 0.0 4.8 0.00 0.00 0.00 24 1013.5
20260507071543 22 0 0.0 4.8 0.00 0.00 0.00 24 1013.5
20260507071022 23 284 1.6 4.8 0.00 0.00 0.00 25 1013.5
20260507070522 22 300 0.0 4.8 0.00 0.00 0.00 25 1013.5
20260507070044 22 300 1.6 4.8 0.00 0.00 0.00 25 1013.5
20260507065522 22 0 0.0 0.0 0.00 0.00 0.00 26 1013.5
20260507065019 22 0 0.0 3.2 0.00 0.00 0.00 26 1013.5
20260507064544 22 0 0.0 3.2 0.00 0.00 0.00 26 1013.4
20260507064019 22 330 0.0 3.2 0.00 0.00 0.00 26 1013.3
20260507063520 22 331 1.6 3.2 0.00 0.00 0.00 25 1013.4
20260507063038 22 324 0.0 0.0 0.00 0.00 0.00 25 1013.4
20260507062523 22 0 0.0 0.0 0.00 0.00 0.00 25 1013.3
20260507062023 22 0 0.0 0.0 0.00 0.00 0.00 24 1013.4
20260507061540 22 0 0.0 0.0 0.00 0.00 0.00 24 1013.3
20260507061022 22 0 0.0 0.0 0.00 0.00 0.00 24 1013.3
20260507060521 22 0 0.0 0.0 0.00 0.00 0.00 23 1013.3
20260507060043 22 0 0.0 0.0 0.00 0.00 0.00 23 1013.4
20260507055522 23 0 0.0 0.0 0.00 0.00 0.00 23 1013.4
20260507055022 23 0 0.0 0.0 0.00 0.00 0.00 23 1013.4
20260507054541 23 0 0.0 0.0 0.00 0.00 0.00 23 1013.4
20260507054020 23 0 0.0 0.0 0.00 0.00 0.00 23 1013.4
20260507053521 23 0 0.0 0.0 0.00 0.00 0.00 22 1013.4
20260507053039 23 0 0.0 0.0 0.00 0.00 0.00 23 1013.4
20260507052529 23 0 0.0 0.0 0.00 0.00 0.00 23 1013.4
20260507052019 23 0 0.0 0.0 0.00 0.00 0.00 23 1013.4
20260507051537 23 0 0.0 0.0 0.00 0.00 0.00 23 1013.4
20260507051026 23 0 0.0 3.2 0.00 0.00 0.00 23 1013.3
20260507050523 23 0 0.0 3.2 0.00 0.00 0.00 23 1013.3
20260507050059 23 327 0.0 3.2 0.00 0.00 0.00 23 1013.3
20260507045523 23 0 0.0 0.0 0.00 0.00 0.00 23 1013.2
20260507045022 23 0 0.0 0.0 0.00 0.00 0.00 23 1013.2
20260507044549 23 0 0.0 0.0 0.00 0.00 0.00 23 1013.2
20260507044022 23 0 0.0 0.0 0.00 0.00 0.00 23 1013.2
20260507043522 23 0 0.0 0.0 0.00 0.00 0.00 23 1013.2
20260507043037 23 0 0.0 0.0 0.00 0.00 0.00 23 1013.1
20260507042522 23 0 0.0 0.0 0.00 0.00 0.00 23 1013.0
20260507042022 23 0 0.0 0.0 0.00 0.00 0.00 23 1013.0
20260507041539 23 0 0.0 0.0 0.00 0.00 0.00 23 1013.0
20260507041020 24 0 0.0 0.0 0.00 0.00 0.00 22 1012.8
20260507040523 24 0 0.0 0.0 0.00 0.00 0.00 22 1012.8
20260507040038 24 0 0.0 0.0 0.00 0.00 0.00 22 1012.7
20260507035522 24 0 0.0 0.0 0.00 0.00 0.00 21 1012.7
20260507035025 25 0 0.0 0.0 0.00 0.00 0.00 21 1012.7
20260507034541 25 0 0.0 0.0 0.00 0.00 0.00 21 1012.7
20260507034022 25 0 0.0 0.0 0.00 0.00 0.00 21 1012.6
20260507033523 25 0 0.0 0.0 0.00 0.00 0.00 21 1012.5
20260507033041 25 0 0.0 0.0 0.00 0.00 0.00 21 1012.4
20260507032518 25 0 0.0 0.0 0.00 0.00 0.00 21 1012.4
20260507032022 25 0 0.0 0.0 0.00 0.00 0.00 21 1012.4
20260507031539 25 0 0.0 0.0 0.00 0.00 0.00 20 1012.3
20260507031026 25 0 0.0 0.0 0.00 0.00 0.00 20 1012.2
20260507030523 25 0 0.0 0.0 0.00 0.00 0.00 20 1012.2
20260507030039 25 0 0.0 0.0 0.00 0.00 0.00 20 1012.1
20260507025522 25 0 0.0 0.0 0.00 0.00 0.00 20 1012.1
20260507025020 25 0 0.0 0.0 0.00 0.00 0.00 20 1012.0
20260507024544 26 0 0.0 0.0 0.00 0.00 0.00 19 1012.0
20260507024022 26 0 0.0 3.2 0.00 0.00 0.00 19 1011.9
20260507023519 26 0 0.0 4.8 0.00 0.00 0.00 19 1011.8
20260507023038 26 0 0.0 4.8 0.00 0.00 0.00 19 1011.8
20260507022519 26 0 0.0 6.4 0.00 0.00 0.00 19 1011.7
20260507022021 26 298 0.0 9.7 0.00 0.00 0.00 19 1011.7
20260507021550 26 304 4.8 9.7 0.00 0.00 0.00 18 1011.7
20260507021023 26 288 4.8 8.0 0.00 0.00 0.00 18 1011.6
20260507020523 26 298 1.6 6.4 0.00 0.00 0.00 18 1011.6
20260507020040 27 327 3.2 6.4 0.00 0.00 0.00 18 1011.5
20260507015523 27 0 0.0 9.7 0.00 0.00 0.00 17 1011.5
20260507015023 27 0 3.2 9.7 0.00 0.00 0.00 17 1011.6
20260507014538 27 309 0.0 9.7 0.00 0.00 0.00 17 1011.5
20260507014027 28 329 0.0 6.4 0.00 0.00 0.00 17 1011.5
20260507013522 28 0 0.0 6.4 0.00 0.00 0.00 17 1011.6
20260507013038 28 0 0.0 6.4 0.00 0.00 0.00 17 1011.5
20260507012524 29 304 0.0 6.4 0.00 0.00 0.00 17 1011.5
20260507012023 28 0 0.0 6.4 0.00 0.00 0.00 17 1011.5
20260507011539 28 296 0.0 6.4 0.00 0.00 0.00 17 1011.5
20260507011022 28 0 1.6 6.4 0.00 0.00 0.00 17 1011.5
20260507010521 28 53 0.0 6.4 0.00 0.00 0.00 17 1011.5
20260507010043 28 0 3.2 11.3 0.00 0.00 0.00 17 1011.5
20260507005523 28 0 1.6 16.1 0.00 0.00 0.00 17 1011.5
20260507005026 28 284 6.4 19.3 0.00 0.00 0.00 16 1011.5
20260507004536 28 202 8.0 19.3 0.00 0.00 0.00 17 1011.4
20260507004021 28 122 6.4 14.5 0.00 0.00 0.00 16 1011.4
20260507003522 28 173 6.4 16.1 0.00 0.00 0.00 17 1011.4
20260507003040 28 242 4.8 16.1 0.00 0.00 0.00 17 1011.4
20260507002523 28 0 4.8 16.1 0.00 0.00 0.00 17 1011.3
20260507002022 28 214 6.4 11.3 0.00 0.00 0.00 17 1011.4
20260507001539 28 0 3.2 12.9 0.00 0.00 0.00 17 1011.3
20260507001022 28 0 0.0 12.9 0.00 0.00 0.00 17 1011.4
20260507000523 28 182 4.8 12.9 0.00 0.00 0.00 17 1011.4
20260507000039 28 0 0.0 8.0 0.00 0.00 0.00 17 1011.4
20260506235523 28 303 1.6 11.3 0.00 0.00 0.00 17 1011.4
20260506235025 28 240 0.0 11.3 0.00 0.00 0.00 17 1011.4
20260506234548 28 0 3.2 11.3 0.00 0.00 0.00 18 1011.5
20260506234022 28 0 0.0 16.1 0.00 0.00 0.00 18 1011.5
20260506233523 27 0 4.8 16.1 0.00 0.00 0.00 18 1011.6
20260506233038 27 300 4.8 14.5 0.00 0.00 0.00 18 1011.6
20260506232522 27 277 4.8 14.5 0.00 0.00 0.00 18 1011.7
20260506232023 27 28 4.8 14.5 0.00 0.00 0.00 18 1011.7
20260506231543 28 297 6.4 14.5 0.00 0.00 0.00 18 1011.8
20260506231023 28 314 3.2 11.3 0.00 0.00 0.00 18 1011.8
20260506230523 28 310 1.6 11.3 0.00 0.00 0.00 18 1011.8
20260506230041 28 285 1.6 6.4 0.00 0.00 0.00 18 1011.9
20260506225523 28 0 3.2 9.7 0.00 0.00 0.00 18 1012.0
20260506225023 28 219 4.8 9.7 0.00 0.00 0.00 18 1012.0
20260506224544 27 144 3.2 9.7 0.00 0.00 0.00 18 1012.0
20260506224022 27 326 0.0 9.7 0.00 0.00 0.00 18 1012.2
20260506223522 27 59 6.4 16.1 0.00 0.00 0.00 19 1012.2
20260506223040 27 100 6.4 16.1 0.00 0.00 0.00 19 1012.3
20260506222523 27 227 1.6 8.0 0.00 0.00 0.00 19 1012.2
20260506222023 27 0 1.6 8.0 0.00 0.00 0.00 19 1012.4
20260506221539 27 348 3.2 11.3 0.00 0.00 0.00 19 1012.4
20260506221021 27 221 3.2 12.9 0.00 0.00 0.00 19 1012.4
20260506220521 27 213 4.8 14.5 0.00 0.00 0.00 19 1012.5
20260506220038 27 218 8.0 14.5 0.00 0.00 0.00 19 1012.6
20260506215521 27 22 4.8 16.1 0.00 0.00 0.00 19 1012.7
20260506215022 27 42 6.4 16.1 0.00 0.00 0.00 19 1012.7
20260506214540 27 335 8.0 16.1 0.00 0.00 0.00 20 1012.8
20260506214022 27 236 3.2 9.7 0.00 0.00 0.00 20 1012.8
20260506213522 26 280 1.6 16.1 0.00 0.00 0.00 20 1013.0
20260506213041 26 150 4.8 16.1 0.00 0.00 0.00 20 1013.1
20260506212527 26 295 8.0 16.1 0.00 0.00 0.00 20 1013.2
20260506212025 27 121 8.0 16.1 0.00 0.00 0.00 20 1013.2
20260506211539 27 31 4.8 20.9 0.00 0.00 0.00 20 1013.3
20260506211021 27 80 6.4 20.9 0.00 0.00 0.00 20 1013.3
20260506210523 27 281 9.7 20.9 0.00 0.00 0.00 20 1013.4
20260506210039 27 45 11.3 19.3 0.00 0.00 0.00 20 1013.4
20260506205522 27 38 6.4 14.5 0.00 0.00 0.00 21 1013.5
20260506205024 27 286 3.2 12.9 0.00 0.00 0.00 21 1013.5
20260506204549 27 0 0.0 12.9 0.00 0.00 0.00 21 1013.5
20260506204022 26 204 4.8 12.9 0.00 0.00 0.00 21 1013.6
20260506203523 26 292 6.4 9.7 0.00 0.00 0.00 22 1013.6
20260506203038 26 0 4.8 9.7 0.00 0.00 0.00 22 1013.7
20260506202523 26 128 0.0 14.5 0.00 0.00 0.00 22 1013.6
20260506202022 26 84 0.0 19.3 0.00 0.00 0.00 22 1013.8
20260506201539 26 350 6.4 19.3 0.00 0.00 0.00 22 1013.9
20260506201023 26 340 4.8 16.1 0.00 0.00 0.00 23 1013.8
20260506200522 26 0 3.2 12.9 0.00 0.00 0.00 23 1013.9
20260506200036 26 0 0.0 12.9 0.00 0.00 0.00 23 1013.9
20260506195523 26 317 3.2 12.9 0.00 0.00 0.00 23 1014.0
20260506195024 26 201 1.6 14.5 0.00 0.00 0.00 23 1013.9
20260506194548 26 165 6.4 16.1 0.00 0.00 0.00 24 1014.0
20260506194020 26 235 9.7 17.7 0.00 0.00 0.00 24 1014.0
20260506193521 26 265 6.4 17.7 0.00 0.00 0.00 24 1014.0
20260506193038 25 209 1.6 9.7 0.00 0.00 0.00 25 1014.1
20260506192523 25 311 1.6 14.5 0.00 0.00 0.00 25 1014.1
20260506192020 25 261 4.8 14.5 0.00 0.00 0.00 25 1014.2
20260506191539 25 244 4.8 14.5 0.00 0.00 0.00 25 1014.3
20260506191020 25 231 0.0 8.0 0.00 0.00 0.00 25 1014.3
20260506190520 25 217 3.2 11.3 0.00 0.00 0.00 25 1014.4
20260506190039 25 175 3.2 11.3 0.00 0.00 0.00 26 1014.4
20260506185523 25 280 1.6 9.7 0.00 0.00 0.00 26 1014.5
20260506185023 25 74 1.6 9.7 0.00 0.00 0.00 26 1014.7
20260506184539 24 38 4.8 9.7 0.00 0.00 0.00 26 1014.9
20260506184023 24 99 6.4 9.7 0.00 0.00 0.00 26 1015.0
20260506183521 25 128 3.2 11.3 0.00 0.00 0.00 27 1015.0
20260506183050 24 128 0.0 11.3 0.00 0.00 0.00 27 1015.1
20260506182520 23 11 4.8 19.3 0.00 0.00 0.00 27 1015.2
20260506182020 24 138 8.0 19.3 0.00 0.00 0.00 27 1015.2
20260506181537 24 71 3.2 14.5 0.00 0.00 0.00 27 1015.3
20260506181024 24 40 4.8 14.5 0.00 0.00 0.00 27 1015.3
20260506180524 24 0 1.6 6.4 0.00 0.00 0.00 27 1015.3
20260506180038 24 257 0.0 8.0 0.00 0.00 0.00 28 1015.3
20260506175519 24 111 3.2 14.5 0.00 0.00 0.00 28 1015.3
20260506175023 24 250 3.2 14.5 0.00 0.00 0.00 28 1015.3
20260506174538 24 212 0.0 8.0 0.00 0.00 0.00 28 1015.4
20260506174022 24 230 4.8 8.0 0.00 0.00 0.00 28 1015.4
20260506173523 23 184 0.0 6.4 0.00 0.00 0.00 29 1015.4
20260506173037 24 113 3.2 6.4 0.00 0.00 0.00 29 1015.4
20260506172521 24 130 0.0 6.4 0.00 0.00 0.00 30 1015.4
20260506172023 23 258 0.0 4.8 0.00 0.00 0.00 30 1015.4
20260506171543 24 229 0.0 4.8 0.00 0.00 0.00 30 1015.4
20260506171023 23 0 0.0 8.0 0.00 0.00 0.00 31 1015.3
20260506170522 22 0 0.0 8.0 0.00 0.00 0.00 31 1015.3
20260506170045 22 227 4.8 8.0 0.00 0.00 0.00 31 1015.3
20260506165525 22 223 3.2 6.4 0.00 0.00 0.00 32 1015.3
20260506165021 22 227 1.6 6.4 0.00 0.00 0.00 32 1015.3
20260506164546 22 0 0.0 4.8 0.00 0.00 0.00 32 1015.3
20260506164022 21 63 1.6 6.4 0.00 0.00 0.00 32 1015.3
20260506163525 22 60 0.0 6.4 0.00 0.00 0.00 32 1015.3
20260506163040 22 342 0.0 4.8 0.00 0.00 0.00 32 1015.3
20260506162525 22 0 0.0 4.8 0.00 0.00 0.00 33 1015.3
20260506162020 22 0 0.0 4.8 0.00 0.00 0.00 33 1015.3